Flag for Germany Weather past 2 weeks in Gütersloh, North Rhine-Westphalia, Germany

Now
60 °F

Overcast.


Feels Like: 60 °F
Forecast: 51 / 62 °F
Wind: 6 mph from Southwest

Location: Bad Lippspringe

Current Time: Jul 8, 2015 at 5:14:53 AM

Latest Report: Jul 8, 2015 at 4:00 AM


Visibility: 19 mi

Pressure: 29.75 "Hg

Humidity: 89%

Dew point: 56 °F

Location of GüterslohLocation

Historic Weather in Gütersloh — Graph

°F

Gütersloh temperature yesterday

Maximum temperature yesterday: 87 °F (at 2:00 PM)
Minimum temperature yesterday: 57 °F (at 3:00 AM)
Average temperature yesterday: 71 °F

Past Weeks' High & Low Weather Summary

 TemperatureHumidityPressure
High100 °F (Jul 4, 4:00 PM)100% (Jun 28, 5:00 AM)30.25 "Hg (Jun 28, 5:00 AM)
Low48 °F (Jun 23, 5:00 AM)28% (Jul 7, 2:00 PM)29.69 "Hg (Jul 8, 1:00 AM)
Average69 °F66%30.08 "Hg
* Reported Jun 23 4:00 AM — Jul 8 4:00 AM, Gütersloh, Weather by CustomWeather, © 2015

Note: Actual official high and low records may vary slightly from our data, if they occured in-between our weather recording intervals... More about our weather records

Advertising

Gütersloh weather history for previous 24 hours

 ConditionsComfort  
Time TempWeatherWind HumidityBarometerVisibility
4:00 AM
Wed, Jul 8
60 °FOvercast.6 mph89%29.75 "Hg19 mi
3:00 AM62 °FOvercast.5 mph91%29.74 "Hg12 mi
2:00 AM64 °FOvercast.2 mph82%29.70 "Hg13 mi
1:00 AM66 °FClear.5 mph71%29.69 "Hg22 mi
11:00 PM
Tue, Jul 7
68 °FPassing clouds.3 mph81%29.71 "Hg15 mi
10:00 PM70 °FOvercast.3 mph76%29.70 "Hg13 mi
9:00 PM72 °FOvercast.6 mph70%29.70 "Hg17 mi
8:00 PM73 °FOvercast.6 mph70%29.70 "Hg18 mi
7:00 PM71 °FOvercast.2 mph87%29.71 "Hg12 mi
6:00 PM72 °FLight rain. Overcast.3 mph80%29.74 "Hg4 mi
5:00 PM83 °FLight rain. Overcast.2 mph47%29.72 "Hg17 mi
4:00 PM84 °FPartly sunny.3 mph41%29.74 "Hg19 mi
3:00 PM87 °FOvercast.5 mph34%29.76 "Hg19 mi
2:00 PM87 °FSunny.5 mph28%29.80 "Hg9 mi
1:00 PM84 °FPassing clouds.5 mph34%29.82 "Hg14 mi
12:00 PM81 °FSunny.5 mph38%29.85 "Hg14 mi
11:00 AM79 °FSunny.3 mph44%29.88 "Hg15 mi
10:00 AM77 °FSunny.2 mph45%29.90 "Hg16 mi
9:00 AM73 °FSunny.2 mph52%29.93 "Hg17 mi
8:00 AM70 °FSunny.1 mph58%29.96 "Hg22 mi
7:00 AM65 °FSunny.2 mph67%29.98 "Hg19 mi
6:00 AM62 °FSunny.2 mph71%29.99 "Hg19 mi
5:00 AM61 °FClear.1 mph73%30.01 "Hg18 mi
Weather by CustomWeather, © 2015

See weather overviewHow to use our weather pages